{"data":{"norad_id":53248,"intl_designator":"2022-086G","name":"STARLINK-4135","alt_names":[],"object_type":"PAYLOAD","status":"ACTIVE","operator":null,"country":"US","launch_date":"2022-07-24","launch_site_code":"AFETR","launch_vehicle":null,"mission":null,"orbit_class":"UNKNOWN","rcs_meters":null,"size_class":null,"mass_kg":null,"dimensions":null,"purposes":["comms"],"wikipedia_slug":null,"has_3d_model":false,"image_url":null,"decayed_at":null,"tle_current":{"epoch":"2026-09-20T02:12:06.687648Z","epoch_age_seconds":110716,"freshness":"FRESH","line1":"1 53248U 22086G   26263.09174407  .00000351  00000+0  23058-4 0  9991","line2":"2 53248  53.1612  35.7367 0001115  85.9656 274.1473 15.31699304230802","mean_motion":15.31699304,"eccentricity":0.0001115,"inclination_deg":53.1612,"raan_deg":35.7367,"arg_perigee_deg":85.9656,"mean_anomaly_deg":274.1473,"bstar":2.3058e-5,"rev_number":23080,"period_min":94.013230680426,"perigee_km":469.97841994991,"apogee_km":471.50571998252,"semimajor_km":6848.8790699662,"source":"CELESTRAK","updated_at":"2026-09-20T09:00:40.198621Z"}}}